Overview Statistics Trail Chart Weather Telemetry Raw packets
 

This is the latest recevied weather packets stored in our database for station/object W5MAI. If no packets are shown the sender has not sent any weather packets the latest 10 day(s).

<< 7 8 9 10 11 12 13 >>
Time Temp. Humidity Pressure Rain* Wind** Luminosity Snow
1788518624 25.56° C 86% 1015 hPa 0 mm - 0 W/m² -
1788518030 25.56° C 86% 1014.9 hPa 0 mm - 0 W/m² -
1788517459 25.56° C 86% 1014.9 hPa 0 mm - 0 W/m² -
1788516822 25.56° C 87% 1014.9 hPa 0 mm - 0 W/m² -
1788515604 25.56° C 87% 1014.7 hPa 0 mm - 0 W/m² -
1788513832 25° C 87% 1014.8 hPa 0 mm - 0 W/m² -
1788513203 25.56° C 87% 1014.7 hPa 0 mm - 0 W/m² -
1788512034 25.56° C 86% 1014.7 hPa 0 mm - 0 W/m² -
1788511459 25.56° C 86% 1014.7 hPa 0 mm - 0 W/m² -
1788510221 26.11° C 85% 1014.8 hPa 0 mm - 0 W/m² -
1788509656 26.11° C 84% 1014.9 hPa 0 mm - 0 W/m² -
1788509006 26.11° C 84% 1014.9 hPa 0 mm - 0 W/m² -
1788508424 26.11° C 83% 1014.9 hPa 0 mm - 0 W/m² -
1788507850 26.11° C 83% 1015 hPa 0 mm - 0 W/m² -
1788507214 26.67° C 83% 1015 hPa 0 mm - 0 W/m² -
1788506629 26.11° C 83% 1015.1 hPa 0 mm - 0 W/m² -
1788506058 26.11° C 83% 1015.3 hPa 0 mm - 0 W/m² -
1788505424 26.67° C 83% 1015.3 hPa 0 mm - 0 W/m² -
1788504815 26.67° C 83% 1015.4 hPa 0 mm - 0 W/m² -
1788504229 26.67° C 83% 1015.6 hPa 0 mm - 0 W/m² -
1788503614 26.67° C 83% 1015.6 hPa 0 mm - 0 W/m² -
1788503019 26.67° C 83% 1015.5 hPa 0 mm - 0 W/m² -
1788502404 26.67° C 82% 1015.5 hPa 0 mm - 0 W/m² -
1788501817 26.67° C 82% 1015.6 hPa 0 mm - 0 W/m² -
1788501222 26.67° C 81% 1015.5 hPa 0 mm - 0 W/m² -

* Rain latest hour (hover to see other rain measurements)
** Current wind speed in m/s (hover to see current wind gust speed)